Time,TemperatureF,DewpointF,PressureIn,WindDirection,WindDirectionDegrees,WindSpeedMPH,WindSpeedGustMPH,Humidity,HourlyPrecipIn,Conditions,Clouds,dailyrainin,SoftwareType,DateUTC
2013-05-11 00:12:00,57.7,56.0,29.83,SE,135,0.0,-999.0,94,-99.99,,,0.00,Acu-Link.com,2013-05-11 04:12:00,
2013-05-11 00:28:00,57.4,55.7,29.83,ESE,112,0.0,-999.0,94,-99.99,,,0.00,Acu-Link.com,2013-05-11 04:28:00,
2013-05-11 00:43:00,57.4,55.7,29.83,South,180,0.0,-999.0,94,-99.99,,,0.00,Acu-Link.com,2013-05-11 04:43:00,
2013-05-11 00:58:00,57.4,55.7,29.83,West,270,0.0,-999.0,94,-99.99,,,0.00,Acu-Link.com,2013-05-11 04:58:00,
2013-05-11 01:14:00,57.4,55.7,29.82,SSW,202,0.0,-999.0,94,-99.99,,,0.00,Acu-Link.com,2013-05-11 05:14:00,
2013-05-11 01:29:00,57.4,55.7,29.82,ESE,112,0.0,-999.0,94,-99.99,,,0.00,Acu-Link.com,2013-05-11 05:29:00,
2013-05-11 01:44:00,57.6,56.2,29.81,SSE,157,0.0,-999.0,95,-99.99,,,0.00,Acu-Link.com,2013-05-11 05:44:00,
2013-05-11 02:00:00,57.6,56.2,29.80,East,90,0.0,-999.0,95,-99.99,,,0.00,Acu-Link.com,2013-05-11 06:00:00,
2013-05-11 02:15:00,57.6,56.2,29.79,East,90,0.0,-999.0,95,-99.99,,,0.00,Acu-Link.com,2013-05-11 06:15:00,
2013-05-11 02:30:00,57.4,56.0,29.78,SW,225,0.0,-999.0,95,-99.99,,,0.00,Acu-Link.com,2013-05-11 06:30:00,
2013-05-11 02:45:00,57.4,56.0,29.77,ESE,112,0.0,-999.0,95,-99.99,,,0.00,Acu-Link.com,2013-05-11 06:45:00,
2013-05-11 03:01:00,58.6,56.9,29.78,SW,225,0.0,-999.0,94,-99.99,,,0.00,Acu-Link.com,2013-05-11 07:01:00,
2013-05-11 03:16:00,59.2,56.3,29.77,East,90,1.7,-999.0,90,-99.99,,,0.00,Acu-Link.com,2013-05-11 07:16:00,
2013-05-11 03:31:00,59.9,56.3,29.76,ESE,112,2.2,-999.0,88,-99.99,,,0.00,Acu-Link.com,2013-05-11 07:31:00,
2013-05-11 03:47:00,60.1,56.2,29.76,ESE,112,2.2,-999.0,87,-99.99,,,0.00,Acu-Link.com,2013-05-11 07:47:00,
2013-05-11 04:02:00,60.1,55.9,29.75,ESE,112,1.7,-999.0,86,-99.99,,,0.00,Acu-Link.com,2013-05-11 08:02:00,
2013-05-11 04:18:00,59.9,55.7,29.75,ESE,112,0.0,-999.0,86,-99.99,,,0.00,Acu-Link.com,2013-05-11 08:18:00,
2013-05-11 04:33:00,59.7,55.8,29.75,ESE,112,0.0,-999.0,87,-99.99,,,0.00,Acu-Link.com,2013-05-11 08:33:00,
2013-05-11 04:48:00,59.5,55.6,29.73,NE,45,0.0,-999.0,87,-99.99,,,0.00,Acu-Link.com,2013-05-11 08:48:00,
2013-05-11 05:03:00,59.5,55.6,29.73,South,180,3.2,-999.0,87,-99.99,,,0.00,Acu-Link.com,2013-05-11 09:03:00,
2013-05-11 05:18:00,59.5,55.3,29.73,ESE,112,0.0,-999.0,86,-99.99,,,0.00,Acu-Link.com,2013-05-11 09:18:00,
2013-05-11 05:33:00,59.4,55.5,29.73,ESE,112,0.0,-999.0,87,-99.99,,,0.00,Acu-Link.com,2013-05-11 09:33:00,
2013-05-11 05:48:00,59.2,56.0,29.73,ESE,112,1.7,-999.0,89,-99.99,,,0.00,Acu-Link.com,2013-05-11 09:48:00,
2013-05-11 06:04:00,58.1,55.5,29.74,SSW,202,0.0,-999.0,91,-99.99,,,0.01,Acu-Link.com,2013-05-11 10:04:00,
2013-05-11 06:19:00,57.6,55.6,29.73,SE,135,0.0,-999.0,93,-99.99,,,0.03,Acu-Link.com,2013-05-11 10:19:00,
2013-05-11 06:34:00,57.4,55.7,29.73,East,90,0.0,-999.0,94,-99.99,,,0.08,Acu-Link.com,2013-05-11 10:34:00,
2013-05-11 06:50:00,57.2,55.8,29.73,SSE,157,0.0,-999.0,95,-99.99,,,0.09,Acu-Link.com,2013-05-11 10:50:00,
2013-05-11 07:05:00,57.2,56.1,29.72,North,0,0.0,-999.0,96,-99.99,,,0.11,Acu-Link.com,2013-05-11 11:05:00,
2013-05-11 07:20:00,57.2,56.1,29.72,ESE,112,0.0,-999.0,96,-99.99,,,0.12,Acu-Link.com,2013-05-11 11:20:00,
2013-05-11 07:35:00,57.6,56.5,29.72,SSW,202,1.7,-999.0,96,-99.99,,,0.12,Acu-Link.com,2013-05-11 11:35:00,
2013-05-11 07:51:00,57.7,56.9,29.71,East,90,1.1,-999.0,97,-99.99,,,0.12,Acu-Link.com,2013-05-11 11:51:00,
2013-05-11 08:06:00,57.9,57.1,29.71,East,90,1.7,-999.0,97,-99.99,,,0.12,Acu-Link.com,2013-05-11 12:06:00,
2013-05-11 08:21:00,58.5,57.7,29.70,NNE,22,0.0,-999.0,97,-99.99,,,0.12,Acu-Link.com,2013-05-11 12:21:00,
2013-05-11 08:36:00,58.8,57.9,29.71,NNE,22,2.2,-999.0,97,-99.99,,,0.12,Acu-Link.com,2013-05-11 12:36:00,
2013-05-11 08:52:00,59.4,58.5,29.71,ENE,67,0.0,-999.0,97,-99.99,,,0.12,Acu-Link.com,2013-05-11 12:52:00,
2013-05-11 09:07:00,59.5,58.6,29.71,ENE,67,2.2,-999.0,97,-99.99,,,0.12,Acu-Link.com,2013-05-11 13:07:00,
2013-05-11 09:23:00,59.9,59.0,29.72,ESE,112,0.0,-999.0,97,-99.99,,,0.12,Acu-Link.com,2013-05-11 13:23:00,
2013-05-11 09:38:00,60.1,59.0,29.71,East,90,0.0,-999.0,96,-99.99,,,0.12,Acu-Link.com,2013-05-11 13:38:00,
2013-05-11 09:53:00,60.3,59.2,29.70,NW,315,0.0,-999.0,96,-99.99,,,0.12,Acu-Link.com,2013-05-11 13:53:00,
2013-05-11 10:09:00,61.5,60.1,29.70,ESE,112,1.7,-999.0,95,-99.99,,,0.12,Acu-Link.com,2013-05-11 14:09:00,
2013-05-11 10:24:00,62.4,60.3,29.70,NE,45,2.7,-999.0,93,-99.99,,,0.12,Acu-Link.com,2013-05-11 14:24:00,
2013-05-11 10:39:00,64.2,61.5,29.69,WNW,292,2.7,-999.0,91,-99.99,,,0.12,Acu-Link.com,2013-05-11 14:39:00,
2013-05-11 10:54:00,63.5,60.2,29.70,NNE,22,3.2,-999.0,89,-99.99,,,0.12,Acu-Link.com,2013-05-11 14:54:00,
2013-05-11 11:10:00,64.0,60.7,29.69,East,90,1.7,-999.0,89,-99.99,,,0.12,Acu-Link.com,2013-05-11 15:10:00,
2013-05-11 11:25:00,63.7,60.1,29.69,NNE,22,1.7,-999.0,88,-99.99,,,0.13,Acu-Link.com,2013-05-11 15:25:00,
2013-05-11 11:40:00,63.3,60.0,29.69,East,90,1.7,-999.0,89,-99.99,,,0.13,Acu-Link.com,2013-05-11 15:40:00,
2013-05-11 11:56:00,62.8,59.8,29.69,North,0,2.7,-999.0,90,-99.99,,,0.13,Acu-Link.com,2013-05-11 15:56:00,
2013-05-11 12:11:00,62.4,59.4,29.69,SSE,157,2.2,-999.0,90,-99.99,,,0.13,Acu-Link.com,2013-05-11 16:11:00,
2013-05-11 12:26:00,61.9,58.9,29.69,ESE,112,2.2,-999.0,90,-99.99,,,0.13,Acu-Link.com,2013-05-11 16:26:00,
2013-05-11 12:42:00,61.5,59.2,29.68,East,90,1.7,-999.0,92,-99.99,,,0.13,Acu-Link.com,2013-05-11 16:42:00,
2013-05-11 12:57:00,61.2,59.2,29.68,NNE,22,2.2,-999.0,93,-99.99,,,0.13,Acu-Link.com,2013-05-11 16:57:00,
2013-05-11 13:12:00,61.2,59.5,29.68,ESE,112,0.0,-999.0,94,-99.99,,,0.13,Acu-Link.com,2013-05-11 17:12:00,
2013-05-11 13:27:00,61.2,59.5,29.68,ESE,112,5.3,-999.0,94,-99.99,,,0.13,Acu-Link.com,2013-05-11 17:27:00,
2013-05-11 13:42:00,61.3,59.6,29.67,ESE,112,1.7,-999.0,94,-99.99,,,0.13,Acu-Link.com,2013-05-11 17:42:00,
2013-05-11 13:57:00,61.3,59.9,29.67,NNE,22,2.7,-999.0,95,-99.99,,,0.14,Acu-Link.com,2013-05-11 17:57:00,
2013-05-11 14:13:00,61.7,60.5,29.66,NW,315,2.2,-999.0,96,-99.99,,,0.14,Acu-Link.com,2013-05-11 18:13:00,
2013-05-11 14:28:00,61.9,60.7,29.66,North,0,3.7,-999.0,96,-99.99,,,0.14,Acu-Link.com,2013-05-11 18:28:00,
2013-05-11 14:44:00,62.4,60.9,29.66,ENE,67,3.2,-999.0,95,-99.99,,,0.15,Acu-Link.com,2013-05-11 18:44:00,
2013-05-11 14:59:00,62.8,61.3,29.66,West,270,0.0,-999.0,95,-99.99,,,0.15,Acu-Link.com,2013-05-11 18:59:00,
2013-05-11 15:14:00,62.8,61.3,29.65,NE,45,1.1,-999.0,95,-99.99,,,0.15,Acu-Link.com,2013-05-11 19:14:00,
2013-05-11 15:30:00,63.1,61.6,29.64,WNW,292,0.0,-999.0,95,-99.99,,,0.15,Acu-Link.com,2013-05-11 19:30:00,
2013-05-11 15:45:00,63.5,62.0,29.64,NNE,22,1.7,-999.0,95,-99.99,,,0.16,Acu-Link.com,2013-05-11 19:45:00,
2013-05-11 16:00:00,63.1,61.9,29.64,SSE,157,0.0,-999.0,96,-99.99,,,0.20,Acu-Link.com,2013-05-11 20:00:00,
2013-05-11 16:15:00,63.1,61.9,29.63,East,90,0.0,-999.0,96,-99.99,,,0.20,Acu-Link.com,2013-05-11 20:15:00,
2013-05-11 16:31:00,63.0,61.8,29.64,WSW,247,1.1,-999.0,96,-99.99,,,0.20,Acu-Link.com,2013-05-11 20:31:00,
2013-05-11 16:46:00,62.6,61.4,29.64,NNE,22,0.0,-999.0,96,-99.99,,,0.20,Acu-Link.com,2013-05-11 20:46:00,
2013-05-11 17:01:00,62.6,61.7,29.63,NNW,337,1.7,-999.0,97,-99.99,,,0.20,Acu-Link.com,2013-05-11 21:01:00,
2013-05-11 17:17:00,62.4,61.5,29.63,NE,45,2.2,-999.0,97,-99.99,,,0.20,Acu-Link.com,2013-05-11 21:17:00,
2013-05-11 17:32:00,62.2,61.3,29.63,NNE,22,1.7,-999.0,97,-99.99,,,0.20,Acu-Link.com,2013-05-11 21:32:00,
2013-05-11 17:47:00,62.2,61.3,29.64,East,90,1.1,-999.0,97,-99.99,,,0.20,Acu-Link.com,2013-05-11 21:47:00,
2013-05-11 18:03:00,61.9,61.0,29.64,NE,45,1.7,-999.0,97,-99.99,,,0.20,Acu-Link.com,2013-05-11 22:03:00,
2013-05-11 18:18:00,61.5,60.6,29.64,NE,45,2.2,-999.0,97,-99.99,,,0.20,Acu-Link.com,2013-05-11 22:18:00,
2013-05-11 18:33:00,61.2,60.3,29.64,SE,135,0.0,-999.0,97,-99.99,,,0.20,Acu-Link.com,2013-05-11 22:33:00,
2013-05-11 18:48:00,61.0,60.1,29.65,NNE,22,1.1,-999.0,97,-99.99,,,0.21,Acu-Link.com,2013-05-11 22:48:00,
2013-05-11 19:03:00,60.8,59.9,29.65,ENE,67,2.2,-999.0,97,-99.99,,,0.21,Acu-Link.com,2013-05-11 23:03:00,
2013-05-11 19:19:00,60.6,60.0,29.65,WSW,247,1.7,-999.0,98,-99.99,,,0.21,Acu-Link.com,2013-05-11 23:19:00,
2013-05-11 19:34:00,60.6,60.0,29.66,ENE,67,0.0,-999.0,98,-99.99,,,0.21,Acu-Link.com,2013-05-11 23:34:00,
2013-05-11 19:49:00,60.4,59.8,29.66,NE,45,0.0,-999.0,98,-99.99,,,0.21,Acu-Link.com,2013-05-11 23:49:00,
2013-05-11 20:04:00,60.3,59.7,29.66,NE,45,1.7,-999.0,98,-99.99,,,0.21,Acu-Link.com,2013-05-12 00:04:00,
2013-05-11 20:20:00,60.1,59.5,29.66,NNE,22,0.0,-999.0,98,-99.99,,,0.21,Acu-Link.com,2013-05-12 00:20:00,
2013-05-11 20:35:00,59.9,59.3,29.66,NNW,337,1.1,-999.0,98,-99.99,,,0.21,Acu-Link.com,2013-05-12 00:35:00,
2013-05-11 20:50:00,59.7,59.1,29.66,NE,45,2.7,-999.0,98,-99.99,,,0.21,Acu-Link.com,2013-05-12 00:50:00,
2013-05-11 21:05:00,59.7,59.1,29.66,NE,45,0.0,-999.0,98,-99.99,,,0.21,Acu-Link.com,2013-05-12 01:05:00,
2013-05-11 21:21:00,59.5,58.9,29.65,WNW,292,0.0,-999.0,98,-99.99,,,0.21,Acu-Link.com,2013-05-12 01:21:00,
2013-05-11 21:36:00,59.2,58.6,29.65,North,0,0.0,-999.0,98,-99.99,,,0.21,Acu-Link.com,2013-05-12 01:36:00,
2013-05-11 21:51:00,59.2,58.6,29.65,NE,45,0.0,-999.0,98,-99.99,,,0.21,Acu-Link.com,2013-05-12 01:51:00,
2013-05-11 22:07:00,58.8,58.2,29.65,ENE,67,0.0,-999.0,98,-99.99,,,0.21,Acu-Link.com,2013-05-12 02:07:00,
2013-05-11 22:22:00,58.6,58.0,29.65,SSW,202,0.0,-999.0,98,-99.99,,,0.21,Acu-Link.com,2013-05-12 02:22:00,
2013-05-11 22:37:00,58.5,57.9,29.65,East,90,0.0,-999.0,98,-99.99,,,0.21,Acu-Link.com,2013-05-12 02:37:00,
2013-05-11 22:52:00,58.5,57.9,29.65,South,180,0.0,-999.0,98,-99.99,,,0.21,Acu-Link.com,2013-05-12 02:52:00,
2013-05-11 23:08:00,58.3,57.7,29.66,ENE,67,0.0,-999.0,98,-99.99,,,0.21,Acu-Link.com,2013-05-12 03:08:00,
2013-05-11 23:23:00,58.1,57.5,29.65,North,0,0.0,-999.0,98,-99.99,,,0.21,Acu-Link.com,2013-05-12 03:23:00,
2013-05-11 23:38:00,58.1,57.5,29.65,West,270,0.0,-999.0,98,-99.99,,,0.21,Acu-Link.com,2013-05-12 03:38:00,
2013-05-11 23:54:00,58.1,57.5,29.65,NE,45,0.0,-999.0,98,-99.99,,,0.21,Acu-Link.com,2013-05-12 03:54:00,